Location: Fort Worth, Tx
(32.7431°N, 97.3695°W)
Time: 21:04:24
(UTC-04:00)

Vanguard 1 Rocket - Pass Details

Date: 18 September 2024
Orbit: 650 x 4218 km, 34.3° (Epoch: 11 October)

Event Time Altitude Azimuth Distance (km) Brightness Sun altitude
Exits shadow 07:22:58 13° 270° (W) 4,828 10.4 -11.8°
Maximum altitude 07:38:40 85° 360° (N) 3,557 10.4 -8.5°
Drops below altitude 10° 08:05:15 10° 91° (E) 7,403 14.1 -3.0°
Sets 08:10:56 0° 93° (E) 8,325 15.2 -1.8°
